Temp
-22 -23 -23 -24 -24 -24 -24 -24 -24 -24 -24 -23 -23 -23 -22 -22 -22 -21 -20 -20 -19 -19 -18 -17 -17 -17 -16 -16 -16 -15 -14 -13 -12 -13 -13 -12 -11 -12 -12 -11 -10 -10 -10 -10 -9 -9 -9 -9 -9 -9 -8 -8 -9 -9
-24 -24 -24 -24 -25 -25 -25 -25 -25 -25 -24 -24 -24 -23 -22 -22 -22 -22 -21 -20 -20 -19 -19 -18 -17 -17 -16 -16 -16 -15 -14 -14 -14 -13 -12 -12 -12 -12 -12 -11 -11 -11 -10 -10 -10 -10 -10 -10 -10 -10 -9 -9 -9 -9
-24 -24 -24 -25 -25 -26 -26 -26 -25 -25 -24 -24 -24 -23 -23 -23 -22 -22 -21 -21 -20 -20 -20 -19 -18 -17 -16 -16 -16 -15 -15 -15 -14 -14 -14 -13 -13 -13 -12 -11 -10 -10 -10 -10 -11 -11 -10 -10 -10 -10 -10 -10 -10 -10
-24 -24 -25 -25 -26 -26 -26 -26 -25 -25 -25 -25 -24 -24 -23 -23 -22 -22 -22 -21 -21 -20 -20 -19 -18 -18 -17 -17 -16 -16 -16 -15 -15 -14 -14 -14 -14 -13 -12 -13 -11 -11 -11 -10 -11 -10 -11 -10 -11 -10 -10 -11 -11 -11
-24 -24 -25 -25 -26 -26 -26 -26 -25 -25 -25 -25 -24 -24 -23 -23 -22 -22 -22 -22 -21 -21 -20 -20 -19 -18 -17 -17 -16 -17 -16 -16 -15 -14 -14 -14 -13 -13 -13 -12 -12 -12 -12 -12 -11 -10 -11 -11 -12 -11 -11 -11 -11 -11
-24 -25 -25 -25 -25 -26 -25 -25 -25 -25 -25 -24 -24 -24 -23 -22 -22 -22 -22 -22 -21 -21 -21 -20 -20 -19 -18 -17 -16 -16 -16 -16 -14 -14 -14 -14 -14 -14 -14 -13 -13 -13 -12 -12 -13 -13 -12 -12 -12 -12 -12 -12 -11 -12
-25 -25 -25 -25 -25 -25 -25 -25 -25 -25 -25 -25 -24 -24 -23 -23 -22 -22 -22 -22 -22 -21 -21 -21 -20 -20 -19 -18 -17 -18 -18 -17 -14 -14 -14 -14 -14 -15 -14 -14 -14 -13 -12 -13 -13 -12 -12 -12 -12 -13 -12 -12 -12 -13
-25 -25 -25 -25 -25 -25 -25 -25 -25 -25 -25 -25 -24 -23 -23 -23 -22 -22 -22 -22 -22 -21 -21 -22 -21 -20 -19 -18 -18 -18 -18 -17 -15 -15 -14 -14 -15 -15 -14 -14 -14 -13 -13 -13 -13 -13 -13 -13 -13 -13 -12 -12 -12 -11
-25 -25 -25 -25 -25 -25 -25 -25 -25 -25 -25 -25 -24 -23 -23 -23 -22 -22 -22 -22 -22 -21 -22 -21 -21 -20 -19 -19 -18 -18 -18 -17 -16 -16 -16 -16 -15 -15 -14 -14 -14 -14 -14 -14 -13 -13 -13 -13 -13 -13 -12 -12 -12 -12
-25 -24 -24 -25 -25 -25 -25 -25 -25 -25 -25 -24 -24 -24 -23 -23 -22 -22 -22 -22 -22 -21 -22 -21 -21 -20 -19 -19 -19 -18 -18 -18 -18 -17 -16 -16 -15 -14 -14 -14 -14 -15 -15 -15 -14 -14 -14 -14 -13 -13 -13 -13 -12 -12
-25 -25 -24 -24 -25 -25 -25 -25 -25 -25 -25 -24 -24 -24 -23 -22 -22 -22 -22 -22 -22 -21 -21 -21 -20 -20 -20 -19 -19 -19 -18 -18 -18 -18 -17 -16 -16 -15 -15 -15 -15 -15 -15 -14 -14 -14 -14 -14 -14 -13 -13 -13 -13 -13
-26 -25 -25 -25 -24 -24 -25 -25 -25 -25 -24 -24 -24 -24 -23 -23 -23 -22 -22 -22 -22 -21 -21 -21 -21 -21 -20 -19 -19 -19 -20 -19 -18 -17 -17 -16 -16 -16 -16 -16 -16 -15 -14 -14 -14 -14 -14 -14 -14 -14 -13 -13 -13 -13
-26 -26 -26 -25 -25 -24 -25 -25 -25 -25 -24 -24 -24 -24 -23 -23 -23 -22 -22 -22 -22 -21 -21 -21 -21 -21 -20 -19 -19 -19 -19 -19 -18 -18 -17 -16 -17 -17 -17 -16 -16 -16 -15 -14 -14 -14 -14 -14 -14 -14 -14 -13 -13 -13
-26 -26 -26 -25 -25 -25 -25 -25 -25 -25 -24 -24 -24 -24 -23 -23 -22 -22 -22 -22 -21 -21 -21 -21 -21 -20 -19 -19 -19 -18 -18 -18 -18 -17 -17 -17 -17 -17 -17 -17 -16 -15 -15 -15 -14 -14 -14 -14 -14 -14 -13 -13 -13 -13
-26 -26 -25 -25 -26 -26 -25 -25 -25 -25 -24 -24 -24 -23 -23 -23 -22 -22 -22 -21 -22 -22 -21 -21 -21 -20 -19 -19 -19 -19 -18 -18 -17 -17 -17 -17 -17 -16 -16 -16 -15 -15 -15 -15 -15 -14 -14 -15 -14 -14 -15 -15 -14 -14
-26 -26 -26 -26 -25 -25 -25 -25 -24 -24 -24 -24 -23 -23 -23 -22 -22 -22 -22 -21 -22 -21 -20 -20 -20 -20 -19 -19 -18 -18 -18 -17 -17 -17 -17 -17 -17 -16 -16 -16 -16 -16 -16 -16 -15 -15 -15 -15 -15 -15 -15 -15 -15 -14
-26 -26 -25 -25 -25 -25 -25 -25 -24 -24 -24 -23 -23 -23 -22 -22 -22 -22 -21 -21 -20 -20 -20 -20 -19 -19 -19 -19 -18 -18 -18 -18 -18 -18 -17 -17 -17 -17 -17 -17 -16 -16 -16 -16 -16 -16 -16 -15 -15 -15 -15 -15 -15 -15
-25 -25 -25 -25 -25 -25 -24 -24 -24 -24 -24 -23 -23 -23 -23 -22 -21 -21 -21 -21 -20 -20 -20 -20 -19 -19 -19 -19 -19 -19 -19 -18 -18 -18 -18 -17 -17 -17 -17 -17 -17 -16 -16 -15 -16 -16 -15 -15 -16 -16 -15 -15 -15 -15
-24 -24 -24 -24 -24 -24 -24 -24 -24 -24 -24 -24 -23 -23 -22 -22 -21 -21 -20 -20 -20 -20 -20 -19 -19 -19 -19 -19 -19 -18 -18 -18 -18 -18 -18 -18 -17 -17 -17 -17 -17 -17 -17 -16 -16 -15 -15 -15 -15 -15 -15 -15 -16 -16
-24 -24 -23 -23 -23 -24 -23 -23 -24 -23 -23 -23 -23 -23 -23 -22 -22 -21 -21 -20 -20 -20 -20 -19 -19 -19 -19 -19 -19 -19 -19 -18 -18 -18 -18 -18 -17 -17 -17 -17 -17 -17 -17 -16 -16 -16 -16 -16 -16 -16 -16 -16 -16 -17
-23 -23 -23 -23 -23 -23 -23 -23 -22 -22 -22 -22 -22 -22 -22 -22 -21 -21 -21 -21 -20 -20 -20 -20 -20 -19 -19 -19 -19 -19 -18 -18 -18 -18 -18 -18 -18 -18 -17 -17 -17 -17 -17 -16 -16 -16 -16 -16 -16 -17 -17 -17 -17 -17
-23 -23 -23 -23 -22 -22 -22 -22 -22 -22 -22 -22 -22 -22 -21 -21 -21 -21 -21 -20 -20 -20 -20 -19 -19 -19 -19 -19 -19 -19 -19 -18 -18 -18 -18 -18 -18 -18 -18 -17 -17 -17 -16 -16 -17 -17 -17 -17 -17 -17 -17 -17 -17 -17
-20 -21 -21 -21 -21 -21 -21 -21 -21 -21 -22 -21 -21 -21 -21 -20 -20 -20 -20 -20 -20 -20 -20 -19 -19 -19 -19 -19 -19 -19 -18 -18 -18 -18 -18 -18 -17 -17 -17 -17 -17 -17 -17 -17 -17 -17 -17 -17 -17 -17 -17 -17 -17 -17
-19 -19 -19 -19 -20 -20 -19 -20 -20 -20 -20 -20 -20 -20 -20 -20 -20 -20 -20 -19 -19 -19 -19 -19 -19 -19 -19 -18 -18 -18 -18 -18 -18 -18 -18 -18 -18 -17 -17 -17 -18 -18 -17 -17 -17 -17 -17 -17 -17 -17 -17 -17 -17 -17
-19 -19 -19 -19 -19 -19 -19 -19 -19 -19 -19 -20 -20 -19 -19 -19 -19 -19 -19 -19 -19 -19 -19 -19 -19 -18 -18 -18 -18 -18 -18 -18 -18 -18 -18 -18 -18 -18 -18 -17 -17 -17 -17 -17 -17 -17 -17 -17 -17 -17 -17 -17 -17 -17
-19 -19 -19 -19 -19 -18 -19 -19 -19 -19 -19 -19 -19 -19 -19 -19 -19 -19 -19 -19 -19 -19 -19 -19 -19 -19 -18 -18 -18 -19 -19 -18 -18 -18 -18 -17 -17 -18 -18 -18 -18 -18 -18 -17 -17 -17 -17 -17 -17 -17 -17 -17 -17 -16
-18 -19 -19 -19 -19 -19 -19 -19 -19 -19 -19 -19 -19 -19 -19 -19 -19 -19 -19 -19 -19 -19 -19 -19 -19 -18 -19 -18 -18 -18 -19 -19 -19 -18 -18 -17 -17 -18 -17 -17 -17 -17 -17 -17 -17 -17 -17 -17 -17 -17 -17 -17 -17 -17
-19 -19 -19 -19 -19 -19 -19 -19 -19 -19 -19 -19 -19 -19 -19 -19 -19 -19 -19 -19 -19 -19 -19 -19 -18 -19 -19 -18 -18 -18 -18 -18 -18 -18 -18 -17 -17 -17 -17 -17 -17 -17 -17 -17 -17 -17 -17 -17 -17 -17 -17 -17 -17 -17
-19 -19 -19 -19 -19 -19 -19 -19 -19 -19 -19 -19 -19 -19 -19 -19 -19 -19 -19 -19 -19 -19 -19 -19 -19 -19 -18 -18 -18 -18 -18 -18 -18 -18 -18 -18 -18 -18 -18 -18 -18 -18 -18 -18 -18 -18 -18 -18 -18 -18 -18 -18 -18 -18
-19 -19 -18 -18 -18 -18 -18 -19 -18 -19 -19 -19 -19 -19 -19 -19 -19 -19 -19 -19 -19 -19 -19 -19 -19 -19 -19 -19 -19 -18 -18 -18 -18 -18 -18 -18 -18 -18 -18 -18 -18 -18 -18 -18 -18 -18 -18 -18 -18 -18 -19 -19 -19 -19
-18 -18 -18 -18 -18 -18 -18 -18 -18 -19 -19 -18 -18 -19 -19 -19 -19 -19 -19 -19 -19 -19 -19 -19 -19 -19 -18 -18 -18 -18 -18 -18 -18 -18 -18 -18 -18 -18 -18 -18 -18 -18 -18 -18 -18 -18 -18 -18 -19 -19 -19 -19 -20 -20
-18 -18 -18 -18 -18 -18 -18 -18 -18 -18 -18 -18 -18 -18 -18 -19 -19 -19 -19 -19 -19 -19 -19 -19 -19 -19 -19 -19 -19 -18 -18 -18 -18 -18 -18 -18 -18 -18 -18 -18 -18 -18 -18 -18 -19 -19 -19 -19 -19 -20 -20 -20 -20 -20
-18 -18 -18 -18 -18 -18 -18 -18 -18 -18 -18 -18 -18 -19 -18 -18 -19 -19 -19 -19 -19 -19 -19 -19 -19 -19 -19 -19 -19 -19 -18 -18 -19 -19 -18 -19 -19 -18 -19 -19 -19 -19 -19 -19 -19 -20 -20 -20 -20 -20 -20 -20 -21 -21
Height
5565 5559 5555 5550 5547 5546 5545 5546 5549 5552 5555 5559 5564 5568 5572 5577 5583 5589 5596 5604 5611 5619 5624 5633 5638 5646 5655 5665 5671 5678 5687 5696 5700 5707 5716 5724 5731 5736 5738 5740 5749 5758 5760 5767 5774 5782 5786 5791 5797 5802 5802 5803 5804 5807
5547 5543 5540 5536 5533 5531 5531 5533 5536 5540 5544 5549 5553 5558 5562 5568 5574 5581 5587 5595 5603 5610 5617 5624 5631 5637 5647 5655 5663 5669 5677 5687 5690 5699 5708 5715 5720 5724 5730 5730 5742 5748 5747 5757 5763 5769 5775 5781 5785 5790 5792 5795 5798 5800
5536 5533 5529 5525 5521 5520 5520 5522 5526 5530 5534 5539 5544 5549 5554 5560 5566 5573 5580 5588 5596 5603 5609 5617 5623 5631 5639 5647 5654 5662 5669 5677 5684 5692 5701 5703 5705 5717 5722 5725 5732 5741 5743 5747 5756 5762 5766 5771 5776 5777 5782 5785 5789 5791
5527 5523 5520 5516 5514 5514 5513 5515 5518 5522 5526 5531 5537 5541 5546 5553 5559 5565 5573 5582 5590 5598 5605 5614 5620 5625 5632 5640 5647 5653 5661 5669 5677 5688 5695 5700 5705 5710 5714 5720 5726 5733 5739 5746 5749 5754 5756 5760 5763 5769 5773 5777 5780 5777
5519 5516 5514 5511 5510 5509 5509 5510 5513 5517 5522 5526 5531 5536 5541 5547 5553 5561 5569 5577 5586 5594 5600 5608 5613 5620 5627 5634 5641 5646 5652 5662 5673 5682 5688 5695 5699 5701 5707 5714 5717 5726 5733 5739 5746 5751 5754 5759 5760 5763 5765 5767 5769 5771
5514 5511 5508 5507 5506 5505 5505 5507 5510 5514 5519 5523 5527 5532 5538 5543 5550 5557 5566 5574 5581 5589 5595 5604 5610 5614 5622 5628 5635 5639 5646 5657 5666 5674 5682 5690 5694 5697 5699 5707 5716 5723 5730 5731 5732 5739 5744 5749 5751 5754 5759 5761 5761 5763
5510 5507 5505 5504 5504 5503 5504 5506 5508 5512 5517 5521 5525 5530 5535 5540 5548 5556 5564 5571 5577 5585 5591 5598 5603 5611 5618 5624 5630 5635 5642 5651 5660 5668 5674 5683 5691 5694 5696 5701 5707 5714 5720 5723 5728 5733 5736 5739 5742 5745 5750 5752 5752 5751
5505 5503 5502 5502 5502 5502 5503 5505 5508 5511 5515 5520 5524 5529 5533 5539 5547 5555 5562 5568 5575 5582 5587 5595 5600 5609 5615 5620 5626 5633 5639 5647 5655 5663 5668 5677 5687 5691 5691 5694 5699 5704 5710 5715 5720 5724 5726 5728 5731 5734 5737 5737 5738 5740
5501 5500 5500 5500 5501 5502 5503 5505 5508 5511 5515 5519 5523 5528 5533 5540 5547 5554 5561 5567 5574 5581 5587 5592 5599 5606 5612 5617 5623 5629 5635 5644 5652 5658 5664 5671 5677 5683 5688 5690 5693 5697 5701 5704 5707 5710 5713 5718 5720 5721 5724 5725 5725 5728
5498 5499 5499 5499 5500 5502 5503 5505 5508 5512 5515 5520 5524 5530 5536 5542 5548 5554 5561 5567 5573 5578 5584 5591 5598 5604 5611 5617 5621 5626 5632 5639 5646 5652 5658 5664 5671 5676 5680 5684 5688 5693 5697 5700 5701 5702 5704 5706 5708 5710 5710 5712 5712 5713
5494 5497 5498 5499 5501 5502 5504 5507 5510 5514 5518 5522 5527 5533 5539 5544 5550 5557 5563 5569 5573 5579 5584 5590 5596 5604 5611 5616 5621 5625 5629 5636 5643 5648 5655 5661 5667 5673 5678 5682 5686 5689 5692 5693 5693 5694 5695 5697 5699 5701 5702 5701 5700 5698
5493 5496 5498 5500 5503 5504 5506 5509 5513 5518 5522 5526 5531 5536 5542 5548 5554 5559 5564 5570 5574 5578 5584 5590 5597 5604 5611 5617 5622 5628 5631 5635 5639 5646 5652 5658 5665 5670 5674 5677 5680 5683 5685 5686 5688 5689 5690 5690 5690 5690 5689 5687 5686 5684
5495 5498 5500 5502 5505 5506 5510 5514 5518 5523 5528 5532 5536 5541 5546 5552 5558 5563 5567 5572 5576 5579 5584 5592 5597 5602 5609 5616 5622 5627 5632 5637 5643 5646 5651 5656 5661 5664 5667 5671 5674 5677 5680 5681 5682 5683 5683 5684 5684 5684 5683 5681 5679 5678
5500 5502 5504 5506 5507 5510 5514 5518 5523 5529 5534 5537 5541 5546 5551 5556 5562 5567 5571 5575 5579 5584 5588 5594 5598 5604 5611 5615 5620 5625 5630 5637 5641 5645 5648 5654 5659 5662 5665 5667 5671 5673 5674 5674 5675 5675 5676 5676 5676 5675 5674 5672 5669 5666
5506 5508 5509 5510 5512 5515 5520 5524 5529 5535 5539 5543 5547 5551 5556 5561 5566 5569 5575 5579 5583 5587 5591 5595 5601 5606 5611 5616 5621 5626 5631 5635 5638 5642 5650 5653 5655 5658 5660 5662 5664 5665 5666 5666 5667 5667 5667 5666 5665 5664 5662 5662 5660 5658
5514 5516 5516 5518 5521 5524 5527 5531 5536 5540 5545 5550 5553 5557 5561 5566 5569 5573 5578 5582 5586 5590 5594 5598 5602 5607 5613 5618 5622 5625 5629 5633 5638 5643 5646 5650 5652 5654 5655 5657 5658 5659 5660 5660 5660 5659 5659 5658 5658 5658 5657 5656 5653 5649
5523 5524 5526 5527 5530 5533 5536 5540 5544 5548 5551 5555 5558 5562 5566 5570 5574 5577 5582 5586 5589 5593 5597 5601 5605 5608 5613 5618 5622 5625 5630 5634 5638 5641 5644 5647 5650 5651 5653 5654 5655 5655 5654 5653 5653 5652 5652 5651 5650 5650 5649 5647 5645 5642
5532 5534 5535 5537 5540 5543 5546 5548 5552 5554 5557 5560 5563 5567 5570 5572 5577 5582 5585 5588 5591 5595 5599 5603 5607 5611 5614 5618 5622 5625 5628 5631 5634 5638 5641 5643 5645 5647 5648 5647 5647 5647 5646 5644 5645 5645 5644 5643 5643 5643 5642 5640 5638 5636
5545 5545 5546 5548 5550 5552 5555 5558 5560 5562 5564 5566 5569 5571 5573 5577 5580 5584 5586 5590 5594 5597 5601 5604 5608 5612 5615 5618 5621 5624 5626 5629 5632 5635 5637 5639 5640 5641 5642 5642 5642 5641 5640 5640 5640 5639 5639 5639 5638 5637 5636 5634 5632 5630
5557 5557 5559 5560 5561 5562 5564 5566 5568 5570 5571 5574 5575 5577 5578 5581 5584 5587 5589 5593 5596 5600 5603 5607 5611 5614 5617 5619 5621 5623 5626 5628 5630 5633 5635 5635 5635 5635 5636 5636 5637 5637 5636 5636 5636 5636 5635 5634 5633 5632 5630 5628 5627 5625
5569 5569 5569 5570 5571 5571 5573 5574 5575 5576 5577 5579 5580 5582 5584 5587 5589 5591 5593 5596 5600 5603 5606 5609 5612 5614 5616 5618 5620 5622 5624 5626 5628 5630 5631 5632 5632 5631 5632 5633 5634 5634 5634 5633 5632 5630 5629 5627 5626 5626 5625 5624 5622 5620
5580 5580 5580 5580 5580 5580 5580 5581 5581 5582 5583 5584 5586 5587 5589 5591 5593 5595 5597 5599 5602 5605 5607 5610 5613 5615 5617 5618 5620 5622 5624 5625 5626 5628 5628 5628 5629 5629 5629 5630 5630 5630 5629 5628 5626 5624 5623 5621 5620 5619 5619 5617 5615 5613
5593 5591 5590 5589 5588 5588 5589 5587 5588 5588 5589 5589 5590 5591 5593 5595 5598 5599 5600 5602 5605 5607 5610 5612 5615 5617 5618 5620 5621 5622 5623 5624 5624 5625 5626 5626 5626 5627 5627 5626 5625 5626 5626 5624 5621 5619 5618 5617 5614 5613 5611 5609 5607 5605
5608 5607 5605 5603 5602 5601 5600 5599 5599 5598 5599 5600 5600 5601 5602 5603 5604 5605 5607 5609 5611 5613 5615 5616 5617 5619 5620 5621 5622 5622 5622 5623 5623 5623 5624 5624 5624 5623 5623 5624 5623 5621 5620 5619 5617 5614 5612 5609 5607 5605 5603 5602 5599 5597
5621 5620 5619 5617 5614 5613 5613 5612 5611 5611 5611 5611 5611 5612 5612 5613 5613 5614 5614 5616 5617 5617 5618 5619 5620 5620 5621 5622 5623 5623 5623 5622 5622 5622 5622 5622 5622 5621 5621 5619 5618 5616 5614 5611 5609 5606 5605 5603 5601 5598 5595 5592 5589 5586
5630 5629 5629 5628 5625 5625 5624 5623 5622 5621 5620 5620 5619 5619 5619 5620 5620 5620 5622 5622 5623 5623 5623 5623 5623 5623 5624 5625 5623 5624 5623 5623 5622 5619 5618 5619 5618 5617 5616 5614 5611 5608 5605 5602 5600 5598 5596 5594 5591 5588 5584 5580 5576 5572
5637 5636 5636 5635 5633 5631 5630 5629 5628 5628 5628 5627 5627 5627 5627 5626 5625 5625 5626 5626 5626 5626 5627 5626 5627 5627 5626 5626 5624 5624 5623 5622 5620 5617 5614 5613 5613 5611 5610 5608 5604 5601 5598 5595 5592 5588 5585 5582 5579 5575 5571 5567 5563 5559
5645 5642 5642 5641 5639 5636 5636 5635 5635 5634 5634 5634 5634 5633 5633 5633 5632 5632 5632 5631 5631 5631 5630 5628 5626 5625 5625 5624 5623 5621 5619 5618 5616 5613 5610 5607 5605 5604 5601 5598 5595 5592 5588 5585 5581 5576 5572 5568 5565 5561 5556 5552 5548 5544
5650 5648 5647 5646 5645 5644 5643 5643 5643 5642 5641 5640 5639 5639 5639 5638 5637 5637 5636 5635 5634 5632 5631 5630 5629 5627 5626 5624 5621 5620 5617 5615 5613 5609 5606 5602 5599 5596 5592 5588 5585 5580 5576 5573 5567 5562 5557 5553 5549 5545 5539 5534 5530 5526
5658 5656 5654 5652 5651 5650 5649 5648 5647 5646 5645 5645 5645 5644 5643 5641 5640 5639 5638 5637 5636 5635 5634 5632 5629 5627 5625 5622 5619 5615 5611 5608 5605 5602 5599 5595 5591 5587 5584 5579 5575 5570 5566 5561 5555 5550 5545 5539 5534 5528 5523 5517 5510 5505
5661 5660 5658 5656 5655 5655 5653 5652 5651 5652 5651 5651 5649 5647 5645 5643 5643 5641 5640 5638 5636 5634 5632 5630 5627 5624 5621 5617 5614 5610 5606 5601 5596 5593 5589 5584 5580 5576 5570 5565 5560 5555 5550 5544 5537 5531 5526 5520 5514 5508 5503 5497 5490 5483
5665 5664 5662 5660 5659 5657 5657 5655 5654 5652 5650 5649 5648 5648 5646 5644 5642 5640 5639 5637 5633 5630 5627 5624 5621 5618 5614 5610 5605 5600 5595 5590 5586 5583 5578 5573 5569 5563 5558 5552 5546 5539 5533 5527 5520 5514 5507 5500 5493 5486 5478 5472 5465 5458
5665 5663 5662 5662 5661 5660 5658 5656 5656 5654 5652 5651 5649 5647 5645 5642 5638 5637 5635 5633 5630 5626 5622 5618 5614 5610 5606 5603 5597 5592 5586 5581 5575 5569 5564 5558 5552 5546 5541 5534 5528 5522 5515 5507 5499 5492 5485 5477 5470 5461 5453 5444 5436 5428
Wind_Speed
62 56 52 46 42 40 39 39 38 37 34 31 30 31 33 34 33 34 35 35 35 33 38 42 43 51 48 46 46 46 43 47 51 52 51 59 53 41 42 50 46 51 48 44 44 42 46 49 50 52 55 51 50 51
46 38 37 35 35 35 35 35 34 33 29 29 28 28 30 32 32 32 34 35 33 31 36 40 40 45 48 49 49 47 44 44 43 33 39 45 62 48 38 48 51 48 51 55 54 51 48 47 46 49 54 54 52 47
34 33 29 31 30 28 27 27 27 26 27 28 27 27 28 30 32 31 33 33 31 29 33 35 37 39 40 41 42 47 49 45 49 40 36 33 36 47 54 41 62 51 51 50 48 52 53 54 50 49 51 51 57 41
30 27 26 24 20 18 19 18 20 21 22 24 24 25 25 27 31 29 31 33 32 28 31 31 30 32 35 35 35 32 54 44 47 45 43 38 41 48 47 44 51 42 42 45 31 44 43 37 41 45 49 48 46 40
25 21 20 16 15 15 13 13 15 16 16 17 20 23 23 23 29 28 28 35 33 28 32 25 25 28 31 31 35 34 47 41 38 41 39 37 37 43 48 46 40 43 42 41 42 44 31 38 27 27 31 34 39 41
22 18 17 13 12 11 9 11 13 13 14 15 17 17 23 21 27 26 27 32 31 30 32 32 28 33 30 27 33 32 45 38 40 42 39 38 36 38 38 38 44 40 34 34 25 28 31 28 31 30 37 43 36 40
20 15 10 8 8 8 7 9 11 11 13 14 16 18 17 24 25 27 27 28 30 29 18 25 33 31 28 25 30 33 39 41 43 44 44 41 38 35 36 38 40 46 47 27 34 37 37 41 39 36 40 42 50 50
17 12 9 7 6 5 6 7 9 10 14 14 16 18 16 25 25 26 26 27 24 22 24 26 27 28 24 23 26 30 36 40 39 40 44 42 38 41 39 40 40 41 42 43 42 41 45 48 48 50 47 47 48 45
11 8 5 4 3 2 3 6 8 12 15 17 16 16 22 24 23 25 26 25 26 21 29 30 25 25 27 22 24 31 38 34 32 33 36 35 37 39 44 45 44 41 41 41 43 43 43 43 44 44 44 45 44 43
8 4 0 1 4 4 4 7 11 15 15 17 14 17 23 22 22 23 24 24 19 26 29 28 29 24 25 24 24 23 40 29 27 29 33 35 36 40 45 46 46 44 42 42 41 43 47 46 45 43 41 43 44 44
8 5 4 4 4 5 8 11 14 16 16 17 15 20 22 22 22 22 22 22 16 28 28 26 32 23 20 25 24 21 21 34 31 26 30 32 32 31 32 32 31 32 33 37 41 44 44 47 49 46 41 39 41 42
7 6 5 7 7 7 12 14 17 18 15 16 19 24 24 23 22 22 21 22 17 24 28 26 29 23 19 18 20 24 21 19 23 29 32 28 25 24 23 25 30 35 37 37 36 35 34 35 38 40 40 41 41 42
10 8 8 10 10 11 16 18 20 20 26 18 21 25 25 24 23 23 22 18 15 23 28 25 29 29 25 21 20 21 26 25 23 22 21 23 23 24 23 27 26 26 29 31 33 35 37 37 37 37 38 40 42 44
14 13 12 11 12 16 21 23 24 29 24 18 22 25 25 25 23 22 22 15 14 17 25 24 23 23 23 24 25 26 25 23 25 25 27 23 21 19 20 20 20 24 24 26 28 31 31 32 33 35 36 34 34 36
15 14 14 16 20 22 24 26 25 29 27 21 21 25 25 24 22 21 19 16 17 15 16 20 20 19 20 21 22 21 21 20 21 21 16 15 17 19 21 21 22 23 24 26 28 30 31 30 30 29 30 29 32 29
18 17 17 22 22 23 27 26 26 25 26 23 22 23 24 26 20 21 19 15 19 17 18 19 20 19 19 18 18 20 21 20 18 15 15 17 17 19 19 18 20 23 25 26 26 28 27 25 24 25 27 25 22 20
21 21 21 20 23 23 26 26 25 23 24 24 21 24 9 15 18 20 18 17 18 17 16 17 18 19 18 18 20 21 19 18 18 16 18 17 16 17 17 18 19 21 23 24 24 22 21 21 19 22 21 22 21 20
27 27 23 25 23 24 24 23 23 23 23 23 23 18 14 15 16 18 20 19 18 18 17 15 15 15 16 15 15 15 16 17 16 15 16 14 14 15 14 14 17 18 19 18 16 13 9 10 14 15 18 18 18 17
28 26 27 25 23 23 23 22 21 20 21 21 20 16 14 16 18 17 18 19 18 18 18 16 15 15 14 14 14 15 16 15 15 13 13 13 14 16 16 14 14 12 9 9 9 11 15 19 20 18 18 19 19 19
28 26 26 27 26 24 24 24 19 15 16 14 13 10 11 14 15 16 16 16 18 17 16 14 11 9 8 11 12 14 14 13 13 12 11 12 15 15 14 12 12 12 9 10 11 12 12 14 15 15 15 15 16 17
31 27 24 23 21 21 19 16 16 17 17 17 15 14 14 15 15 14 13 13 15 16 14 12 13 10 7 9 9 9 11 12 12 11 10 10 10 12 12 12 11 10 11 13 14 14 15 15 15 13 13 14 17 18
32 27 22 20 19 18 18 18 16 15 14 12 11 11 12 13 13 12 10 10 11 12 10 9 11 9 8 10 9 9 9 9 10 9 10 8 9 8 7 8 8 10 11 13 16 16 16 15 16 16 17 19 19 17
36 34 34 33 34 36 36 34 29 27 22 22 21 20 18 15 13 12 12 12 13 14 15 14 11 9 8 8 6 4 5 5 8 10 11 11 11 11 11 11 12 12 14 16 16 16 16 16 15 16 17 19 20 21
42 43 42 39 38 36 37 34 30 29 29 30 32 30 30 29 23 19 20 19 18 14 11 10 8 8 9 5 9 6 6 7 9 11 11 11 11 13 12 13 14 15 15 16 18 19 18 19 19 20 21 23 24 25
34 32 30 30 27 33 34 33 33 32 30 28 27 24 23 20 20 20 17 18 13 11 11 12 10 7 7 6 4 2 1 3 3 4 7 9 11 15 15 17 17 17 20 22 22 21 20 21 23 25 27 29 30 32
21 20 23 21 25 24 23 24 23 24 22 22 22 21 21 21 21 21 18 15 15 14 13 12 11 10 6 4 3 2 3 4 5 10 12 11 12 13 13 16 21 24 26 26 26 25 25 26 28 30 32 34 36 38
20 21 19 18 18 17 17 17 16 17 17 20 21 18 17 18 19 18 16 14 13 11 10 6 5 6 5 4 5 5 5 7 11 14 17 15 15 16 16 17 19 22 25 28 30 32 33 34 35 36 37 38 39 40
18 20 20 16 16 18 18 18 18 18 18 19 19 18 16 17 18 18 16 15 15 13 12 12 13 13 12 12 12 13 14 13 14 16 18 20 18 18 20 23 25 27 30 33 35 37 39 39 39 39 40 41 43 44
26 25 21 18 16 15 16 16 15 17 18 19 17 15 15 14 13 13 13 13 15 15 14 14 14 13 13 15 15 16 17 17 18 20 21 24 26 28 30 32 34 36 38 38 41 43 44 44 45 45 47 49 51 51
17 17 18 20 19 14 13 13 14 14 15 14 12 11 12 12 12 12 13 13 13 12 13 15 17 18 18 19 21 23 25 25 25 26 27 29 31 32 33 35 37 38 39 41 43 45 46 47 49 50 51 53 55 57
14 13 15 20 16 13 12 12 11 9 8 6 9 12 12 12 10 10 12 13 14 15 17 18 21 23 24 25 25 26 27 29 31 30 31 33 34 35 38 40 42 45 47 49 51 52 52 53 54 55 56 57 58 60
14 12 12 12 12 12 10 10 12 16 15 14 10 10 15 15 15 14 15 17 19 21 25 28 30 30 31 32 33 35 36 36 36 36 37 38 39 41 44 46 48 50 51 52 53 53 55 56 58 60 63 65 67 68
11 2 6 10 10 9 11 12 10 8 10 11 11 7 8 19 16 11 16 20 24 28 29 31 33 34 33 34 35 36 37 39 41 43 45 46 48 49 50 50 51 53 54 55 57 59 60 62 64 67 69 69 70 71
Wind_Direction
300 301 295 290 287 281 271 263 258 257 256 254 248 244 238 232 229 228 226 223 220 216 217 214 217 216 217 220 220 223 225 221 219 220 223 229 230 226 233 216 216 209 205 205 206 217 223 232 237 241 242 245 246 240
299 298 297 296 291 279 267 260 258 255 250 245 242 239 235 228 225 226 222 219 218 214 214 214 217 215 216 221 223 221 216 220 232 216 212 219 225 222 226 236 220 225 222 208 212 218 224 229 233 244 249 250 238 247
300 299 298 301 295 277 268 260 254 248 243 237 234 235 233 224 221 220 218 214 210 205 211 214 218 214 215 220 231 229 217 221 223 225 224 232 223 219 223 231 227 226 227 239 226 216 222 228 231 232 232 238 234 248
304 302 305 307 297 282 275 255 246 239 236 228 228 229 226 218 218 213 211 204 196 196 206 210 217 218 216 218 223 225 215 224 225 218 218 223 224 221 229 240 232 227 229 240 233 239 250 236 235 236 237 240 241 261
312 306 308 300 296 290 267 248 233 226 222 217 223 222 213 219 209 205 204 200 201 204 206 203 208 213 216 216 219 232 217 220 219 217 219 223 226 235 232 234 241 241 244 252 244 237 245 240 252 269 275 277 268 258
318 307 307 294 300 294 255 239 223 215 212 213 217 218 204 217 196 196 196 197 200 208 213 194 203 216 210 215 212 220 208 206 206 208 210 213 215 228 237 238 237 244 245 235 247 245 242 252 253 255 268 268 270 258
317 302 308 297 304 292 247 225 216 216 207 205 211 202 207 197 190 189 189 193 201 204 206 195 209 212 206 209 208 206 201 197 203 205 209 210 204 217 233 239 241 240 240 240 258 259 264 266 264 268 268 275 263 288
314 302 288 291 305 297 239 218 211 204 193 197 197 197 202 184 187 186 184 185 191 197 192 176 189 194 200 206 209 194 192 196 203 204 209 209 205 208 225 235 242 243 245 251 254 255 257 260 263 265 267 267 267 274
311 309 288 268 255 252 224 191 181 181 181 180 185 183 185 179 182 181 181 184 190 197 187 190 181 184 193 196 209 185 183 188 198 202 207 210 208 211 220 229 238 245 251 256 259 262 265 267 270 272 273 276 283 281
264 291 299 218 212 197 188 166 165 167 167 168 165 173 171 171 172 176 177 176 188 179 182 187 181 185 192 190 201 190 179 167 175 192 202 208 211 214 221 226 232 240 248 255 262 266 269 271 274 277 283 284 282 281
223 219 181 122 127 157 163 149 153 157 155 162 163 163 159 162 165 168 170 172 178 174 182 186 186 176 184 191 191 201 184 182 180 182 197 207 211 218 226 229 231 238 245 250 255 260 265 270 278 278 277 276 277 280
176 176 168 152 133 130 149 142 145 143 134 147 154 155 151 155 158 156 161 172 180 172 173 179 177 170 180 179 184 190 191 192 194 191 200 201 206 209 219 225 228 233 239 245 253 260 265 268 273 277 279 280 279 278
130 119 123 137 129 132 145 141 138 134 123 146 153 147 148 151 148 149 155 172 162 160 177 167 171 170 171 172 175 181 193 196 198 206 201 206 214 219 225 228 230 237 244 251 255 258 261 265 269 270 270 273 278 280
110 109 107 114 122 133 141 140 132 131 131 134 144 150 151 146 148 147 150 158 152 149 157 156 171 173 168 171 173 180 191 190 192 202 211 213 213 225 235 238 229 236 242 246 250 255 259 262 268 272 277 284 284 286
103 101 100 113 123 127 134 134 132 143 143 142 143 154 149 142 145 152 155 154 158 161 156 158 161 167 165 174 178 181 186 189 196 203 198 200 210 217 226 234 240 247 253 257 261 266 273 281 279 278 281 284 287 284
96 94 99 115 119 121 126 128 128 127 143 129 121 142 156 157 149 154 155 147 161 157 158 162 163 168 176 180 180 183 191 192 196 196 201 202 211 223 231 239 247 255 263 272 278 278 275 263 268 265 276 282 293 284
90 91 106 106 114 115 125 124 117 112 119 122 118 112 119 147 157 161 154 152 157 159 161 165 170 177 172 178 188 194 198 202 212 211 211 211 217 223 231 245 258 264 271 275 273 268 264 262 261 267 283 285 292 294
92 97 93 105 110 114 120 120 119 120 122 129 134 129 137 143 144 150 163 168 166 160 167 167 172 174 177 183 187 191 195 202 207 211 216 218 219 231 250 272 297 287 280 268 259 248 279 298 288 275 282 286 290 295
96 94 86 92 105 114 120 119 118 122 123 127 130 123 135 133 134 149 166 171 166 173 172 175 177 180 182 189 195 198 204 209 211 218 221 224 238 251 266 272 270 279 270 245 257 278 275 271 276 278 281 287 294 299
93 103 96 93 95 102 110 110 102 101 119 126 127 128 126 132 136 151 160 165 171 176 177 182 186 193 211 212 217 218 217 219 219 219 223 239 260 264 270 265 254 251 268 285 283 275 273 276 282 282 284 284 285 293
87 95 99 99 100 101 104 95 86 93 105 117 122 122 123 124 126 133 150 167 179 179 185 196 204 197 205 213 216 210 210 214 214 215 247 257 258 279 261 233 238 243 263 278 289 290 289 287 284 276 268 269 282 291
84 90 94 94 97 98 96 94 98 104 110 114 118 119 119 124 125 122 122 137 147 157 174 177 169 179 182 176 179 186 199 213 225 233 238 250 261 251 253 248 259 269 276 288 289 293 290 284 280 281 284 284 284 282
66 71 79 87 93 93 91 92 90 91 96 98 100 102 102 104 105 106 107 119 134 144 148 150 156 157 159 156 155 195 202 241 235 236 245 251 252 259 268 273 274 289 297 296 297 296 295 292 293 292 288 286 288 293
72 72 70 67 70 73 72 76 82 82 84 85 86 89 93 93 85 95 105 110 108 112 122 132 155 168 149 152 195 195 252 248 225 217 232 249 259 259 265 280 284 288 287 286 289 291 289 287 288 290 293 296 294 291
77 67 70 67 72 71 66 68 72 77 83 86 88 87 87 90 99 97 100 100 90 97 126 97 110 130 166 150 128 107 270 258 247 261 265 269 272 276 275 273 277 279 287 291 291 287 284 286 289 290 290 290 291 291
69 67 57 73 71 78 62 65 66 64 73 78 77 79 87 95 95 92 90 86 81 82 89 93 96 90 82 72 89 79 270 283 276 267 270 271 271 274 279 284 287 290 290 289 288 292 295 296 293 293 294 294 293 292
65 57 58 63 69 71 63 61 63 64 68 72 70 69 66 71 78 78 78 79 83 76 73 78 69 71 56 5 360 4 353 310 299 300 298 295 294 295 293 288 284 286 290 295 297 297 297 295 294 294 293 291 291 291
60 66 61 59 62 63 61 64 74 82 80 77 76 69 67 73 76 78 73 63 59 51 44 35 26 18 3 353 350 342 332 327 318 308 302 302 303 301 298 297 299 300 298 299 299 299 297 297 297 295 293 292 292 292
49 53 55 62 65 69 78 79 75 77 74 66 64 63 61 54 51 51 49 50 44 33 23 19 10 359 350 341 335 331 325 323 319 312 307 304 302 301 300 300 301 300 301 302 300 299 299 298 297 296 295 294 294 294
36 46 55 59 52 55 67 63 55 58 63 57 53 52 49 46 47 45 36 23 14 16 9 360 349 342 338 329 324 322 320 319 315 309 307 304 301 300 298 295 294 294 297 298 298 297 296 294 293 292 293 294 294 293
32 29 37 39 46 50 51 59 59 60 64 64 51 39 19 10 9 9 4 352 342 342 341 338 330 328 327 327 326 322 319 315 312 312 310 306 306 306 303 303 303 303 302 301 300 300 300 299 299 297 296 295 295 295
41 45 32 30 42 39 36 35 12 6 9 8 17 2 357 342 338 342 344 335 332 332 332 331 330 328 324 325 324 323 320 316 316 317 312 310 310 307 305 306 306 304 303 303 303 302 301 300 300 299 299 298 297 296
68 56 307 25 24 14 11 9 11 12 349 353 353 326 273 299 283 295 343 331 322 323 326 325 326 325 323 324 323 321 319 319 319 315 314 314 312 310 310 309 307 307 307 306 304 304 302 301 301 301 301 301 300 298